STARLINK-3925 (52498 NORAD) Tracking and Keplerian Element Data
This shows tracking and keplerian element data for the satellite.
Feedback or suggestion? Click here.
Element | Value |
Catalog | 52498 |
Name | STARLINK-3925 |
Epoch Orbit | 1069 |
Epoch Day | 193.25001157 |
Epoch Year | 2022 |
RAAN | 295.4737 |
Inclination | 53.2171 |
Eccentricity | 0.0003072 |
Argument of Perigee | 16.3094 |
Mean Anonmoly | 102.7815 |
Mean Motion | 15.73227619 |
Decay Rate | -0.00015636 |
L1 | 1 52498U 22049AZ 22193.25001157 -.00015636 00000+0 -10702-3 0 9998 |
L2 | 2 52498 53.2171 295.4737 0003072 16.3094 102.7815 15.73227619 10694 |
Live tracking and technical data element details for STARLINK-3925 (NORAD 52498). STARLINK-3925 can be tracked NOW for your location showing map with azimuth and elevation plus other details from your city location.
Track the satellite on the map from your city or location and see movement details for azimuth, elevation, latitude, longitude, range, height, and movement on the map or in text.
IsCatalogInMostPopularTable: catalog: 52498, numindb: 9
Update: records affected: 1
GetName: 52498 STARLINK-3925
Hit Count: updated at: Sun, 14 Aug 2022 00:55:55 GMT